This is the latest recevied weather packets stored in our database for station/object K2ATL. If no packets are shown the sender has not sent any weather packets the latest 10 day(s).
| Time | Temp. | Humidity | Pressure | Rain* | Wind** | Luminosity | Snow |
|---|---|---|---|---|---|---|---|
| 1787424294 | 26.11° C | 71% | 1102.4 hPa | 0 mm | - | 834 W/m² | - |
| 1787423994 | 25° C | 72% | 1102.2 hPa | 0 mm | - | 857 W/m² | - |
| 1787423691 | 26.11° C | 75% | 1102.2 hPa | 0 mm | - | 318 W/m² | - |
| 1787423387 | 28.89° C | 63% | 1102.4 hPa | 0 mm | - | 157 W/m² | - |
| 1787423083 | 27.22° C | 72% | 1102.5 hPa | 0 mm | - | 995 W/m² | - |
| 1787422778 | 26.11° C | 69% | 1102.6 hPa | 0 mm | - | 964 W/m² | - |
| 1787422476 | 28.33° C | 70% | 1102.6 hPa | 0 mm | - | 182 W/m² | - |
| 1787422175 | 27.78° C | 63% | 1102.6 hPa | 0 mm | - | 970 W/m² | - |
| 1787421872 | 27.78° C | 75% | 1102.8 hPa | 0 mm | - | 980 W/m² | - |
| 1787421572 | 27.78° C | 69% | 1102.7 hPa | 0 mm | - | 437 W/m² | - |
| 1787421268 | 27.22° C | 75% | 1102.7 hPa | 0 mm | - | 956 W/m² | - |
| 1787420968 | 26.11° C | 73% | 1102.6 hPa | 0 mm | - | 968 W/m² | - |
| 1787420663 | 26.11° C | 74% | 1102.7 hPa | 0 mm | - | 963 W/m² | - |
| 1787420359 | 26.11° C | 69% | 1102.7 hPa | 0 mm | - | 954 W/m² | - |
| 1787420056 | 26.67° C | 70% | 1103 hPa | 0 mm | - | 957 W/m² | - |
| 1787419752 | 25.56° C | 75% | 1102.8 hPa | 0 mm | - | 629 W/m² | - |
| 1787419447 | 26.11° C | 75% | 1102.8 hPa | 0 mm | - | 996 W/m² | - |
| 1787419143 | 25.56° C | 77% | 1102.8 hPa | 0 mm | - | 929 W/m² | - |
| 1787418838 | 25° C | 73% | 1102.8 hPa | 0 mm | - | 1021 W/m² | - |
| 1787418535 | 26.67° C | 76% | 1102.5 hPa | 0 mm | - | 927 W/m² | - |
| 1787418231 | 26.11° C | 71% | 1102.8 hPa | 0 mm | - | 887 W/m² | - |
| 1787417926 | 25.56° C | 73% | 1103 hPa | 0 mm | - | 893 W/m² | - |
| 1787417622 | 25.56° C | 78% | 1102.8 hPa | 0 mm | - | 870 W/m² | - |
| 1787417321 | 23.89° C | 81% | 1103 hPa | 0 mm | - | 675 W/m² | - |
| 1787417017 | 25.56° C | 76% | 1103 hPa | 0 mm | - | 489 W/m² | - |
* Rain latest hour (hover to see other rain measurements)
** Current wind speed in m/s (hover to see current wind gust speed)